Weather History for KAST - February, 2014

Change the Weather History Date:

Wednesday, February 12, 2014

  Actual Average Record
Temperature  
Mean Temperature 50 °F 44 °F  
Max Temperature 53 °F 51 °F 67 °F (1996)
Min Temperature 47 °F 37 °F 23 °F (1905)
Degree Days  
Heating Degree Days 15 21  
Month to date heating degree days 330 252  
Since 1 July heating degree days 3132 3017  
Cooling Degree Days 0 0  
Month to date cooling degree days 0 0  
Year to date cooling degree days 0 0  
Moisture  
Dew Point 46 °F    
Average Humidity 78    
Maximum Humidity 96    
Minimum Humidity 59    
Precipitation  
Precipitation 0.21 in 0.26 in 2.11 in (1939)
Month to date precipitation 1.72 3.23  
Year to date precipitation 8.08 13.43  
Sea Level Pressure  
Sea Level Pressure 29.80 in    
Wind  
Wind Speed 13 mph (SW)    
Max Wind Speed 43 mph    
Max Gust Speed 64 mph    
Visibility 7 miles    
Events Rain    
T = Trace of Precipitation, MM = Missing Value Source: NWS Daily Summary

Daily Weather History Graph

Daily Weather History Graph

Search for Another Location

Airport or City:

Trip Planner

Search our weather history database for the weather conditions in past years. The results will help you decide how hot, cold, wet, or windy it might be!

Date:

Astronomy

Feb. 12, 2014 Rise Set
Actual Time 7:22 AM PST 5:37 PM PST
Civil Twilight 6:51 AM PST 6:08 PM PST
Nautical Twilight 6:16 AM PST 6:43 PM PST
Astronomical Twilight 5:41 AM PST 7:18 PM PST
Moon 3:54 PM PST (2/12) 5:46 AM PST (2/12)
Length of Visible Light 11h 16m
Length of Day
10h 14m
Waxing Gibbous, 96% of the Moon is Illuminated
Feb 12
Waxing Gibbous
Feb 14
Full
Feb 22
Last Quarter
Mar 1
New
Mar 8
First Quarter

Hourly Weather History & Observations

Time (PST) Temp. Dew Point Humidity Pressure Visibility Wind Dir Wind Speed Gust Speed Precip Events Conditions
12:29 AM 52.0 °F 48.9 °F 89% 29.55 in 2.5 mi SSW 36.8 mph 62.1 mph 0.00 in Rain Light Rain
12:55 AM 52.0 °F 48.9 °F 89% 29.56 in 3.0 mi SSW 32.2 mph 48.3 mph 0.02 in Rain Light Rain
1:03 AM 53.1 °F 48.9 °F 86% 29.57 in 2.5 mi SSW 38.0 mph 50.6 mph 0.00 in Rain Light Rain
1:45 AM 52.0 °F 50.0 °F 93% 29.58 in 1.8 mi SSW 31.1 mph 51.8 mph 0.03 in Rain Light Rain
1:55 AM 52.0 °F 50.0 °F 93% 29.59 in 2.5 mi SSW 32.2 mph 52.9 mph 0.04 in Rain Light Rain
2:03 AM 52.0 °F 50.0 °F 93% 29.60 in 3.0 mi SSW 25.3 mph 50.6 mph 0.00 in Rain Light Rain
2:09 AM 52.0 °F 50.0 °F 93% 29.60 in 2.5 mi SSW 29.9 mph 46.0 mph 0.01 in Rain Light Rain
2:30 AM 53.1 °F 50.0 °F 89% 29.63 in 3.0 mi SSW 34.5 mph 54.1 mph 0.02 in Rain Light Rain
2:43 AM 52.0 °F 50.0 °F 93% 29.65 in 6.0 mi SSW 28.8 mph 49.5 mph 0.02 in Rain Light Rain
2:55 AM 52.0 °F 48.9 °F 89% 29.66 in 6.0 mi SSW 32.2 mph 43.7 mph 0.02 in Rain Light Rain
3:43 AM 51.1 °F 48.9 °F 92% 29.71 in 6.0 mi SW 16.1 mph 26.5 mph 0.00 in   Overcast
3:50 AM 51.8 °F 48.2 °F 88% 29.72 in 6.0 mi SW 15.0 mph 24.2 mph 0.00 in   Overcast
3:55 AM 51.1 °F 48.0 °F 89% 29.73 in 6.0 mi SW 17.3 mph 28.8 mph 0.00 in   Overcast
4:32 AM 50.0 °F 46.9 °F 89% 29.75 in 7.0 mi WSW 16.1 mph 24.2 mph N/A   Overcast
4:45 AM 50.0 °F 46.9 °F 89% 29.76 in 7.0 mi WSW 15.0 mph 23.0 mph N/A   Overcast
4:55 AM 50.0 °F 46.0 °F 86% 29.77 in 7.0 mi WSW 16.1 mph - N/A   Overcast
5:55 AM 48.9 °F 46.0 °F 90% 29.80 in 7.0 mi WSW 13.8 mph - 0.00 in   Overcast
6:45 AM 48.0 °F 45.0 °F 89% 29.82 in 6.0 mi WSW 9.2 mph - 0.00 in Rain Light Rain
6:55 AM 48.0 °F 45.0 °F 89% 29.83 in 3.0 mi West 13.8 mph - 0.00 in Rain Light Rain
7:00 AM 48.0 °F 45.0 °F 89% 29.83 in 2.5 mi West 15.0 mph - 0.01 in Rain Light Rain
7:08 AM 48.0 °F 45.0 °F 89% 29.83 in 4.0 mi WSW 11.5 mph - 0.01 in Rain Light Rain
7:19 AM 48.0 °F 45.0 °F 89% 29.84 in 9.0 mi WSW 10.4 mph - 0.01 in   Overcast
7:55 AM 46.9 °F 45.0 °F 93% 29.85 in 5.0 mi West 10.4 mph - 0.01 in Rain Light Rain
8:03 AM 46.9 °F 45.0 °F 93% 29.86 in 8.0 mi West 10.4 mph - 0.00 in   Overcast
8:15 AM 46.9 °F 44.1 °F 90% 29.86 in 10.0 mi West 8.1 mph - 0.00 in   Overcast
8:55 AM 46.9 °F 44.1 °F 90% 29.88 in 9.0 mi West 6.9 mph - 0.00 in   Overcast
9:37 AM 48.9 °F 45.0 °F 86% 29.90 in 9.0 mi WSW 5.8 mph - 0.00 in   Overcast
9:55 AM 50.0 °F 46.0 °F 86% 29.91 in 9.0 mi WSW 8.1 mph - 0.00 in   Overcast
10:55 AM 50.0 °F 44.1 °F 80% 29.92 in 10.0 mi West 9.2 mph - N/A   Mostly Cloudy
11:12 AM 50.0 °F 43.0 °F 77% 29.92 in 10.0 mi West 9.2 mph - N/A   Scattered Clouds
11:43 AM 51.1 °F 42.1 °F 71% 29.93 in 10.0 mi WSW 9.2 mph - N/A   Mostly Cloudy
11:55 AM 50.0 °F 43.0 °F 77% 29.93 in 10.0 mi WSW 9.2 mph - N/A   Mostly Cloudy
12:55 PM 50.0 °F 42.1 °F 74% 29.92 in 10.0 mi SW 8.1 mph - N/A   Mostly Cloudy
1:42 PM 52.0 °F 43.0 °F 71% 29.91 in 10.0 mi SW 6.9 mph - N/A   Scattered Clouds
1:55 PM 51.1 °F 43.0 °F 74% 29.90 in 10.0 mi SW 6.9 mph - N/A   Partly Cloudy
2:55 PM 52.0 °F 37.9 °F 59% 29.88 in 10.0 mi WSW 5.8 mph - N/A   Clear
3:55 PM 51.1 °F 41.0 °F 68% 29.88 in 10.0 mi SSW 8.1 mph - N/A   Clear
4:37 PM 50.0 °F 43.0 °F 77% 29.86 in 10.0 mi South 5.8 mph - N/A   Mostly Cloudy
4:55 PM 50.0 °F 43.0 °F 77% 29.86 in 10.0 mi South 8.1 mph - N/A   Overcast
5:55 PM 50.0 °F 44.1 °F 80% 29.84 in 10.0 mi SSW 6.9 mph - N/A   Overcast
6:34 PM 50.0 °F 46.0 °F 86% 29.84 in 5.0 mi South 8.1 mph - 0.00 in Rain Light Rain
6:50 PM 48.2 °F 46.4 °F 93% 29.83 in 3.0 mi South 6.9 mph - 0.01 in Rain Light Rain
6:55 PM 50.0 °F 46.9 °F 89% 29.83 in 3.0 mi South 8.1 mph - 0.01 in Rain Light Rain
7:03 PM 50.0 °F 46.9 °F 89% 29.83 in 5.0 mi South 10.4 mph - 0.00 in Rain Light Rain
7:55 PM 51.1 °F 48.0 °F 89% 29.81 in 8.0 mi SSW 15.0 mph 25.3 mph 0.01 in Rain Light Rain
8:55 PM 51.1 °F 48.0 °F 89% 29.79 in 5.0 mi SSW 15.0 mph 31.1 mph 0.06 in Rain Light Rain
9:05 PM 51.1 °F 48.0 °F 89% 29.79 in 4.0 mi SSW 19.6 mph 29.9 mph 0.01 in Rain Rain
9:24 PM 50.0 °F 46.9 °F 89% 29.80 in 3.0 mi SSW 19.6 mph 31.1 mph 0.03 in Rain Light Rain
9:31 PM 50.0 °F 46.9 °F 89% 29.80 in 2.0 mi SSW 18.4 mph 28.8 mph 0.04 in Rain Light Rain
9:46 PM 50.0 °F 46.9 °F 89% 29.80 in 5.0 mi SSW 19.6 mph 31.1 mph 0.04 in Rain Light Rain
9:55 PM 50.0 °F 46.9 °F 89% 29.81 in 8.0 mi SSW 19.6 mph 33.4 mph 0.04 in   Overcast
10:55 PM 50.0 °F 46.9 °F 89% 29.85 in 10.0 mi SW 13.8 mph 27.6 mph 0.00 in   Overcast
11:55 PM 50.0 °F 46.9 °F 89% 29.87 in 10.0 mi SSW 13.8 mph 21.9 mph N/A   Overcast